Skip Page Navigation
NASA JPL Caltech
NASA Logo - Jet Propulsion Laboratory + View the NASA Portal
+ Center for Near-Earth Object Studies
JPL Home Earth Solar System Stars & Galaxies Technology
JPL Solar System Dynamics
BODIES ORBITS EPHEMERIDES TOOLS PHYSICAL DATA DISCOVERY FAQ SITE MAP
JPL Small-Body Database Browser
Search: [ help ]  
67234 (2000 ED12)
Classification: Main-belt Asteroid          SPK-ID: 2067234
Ephemeris | Orbit Diagram | Orbital Elements | Mission Design | Physical Parameters | Discovery Circumstances | Close-Approach Data ]

[ show orbit diagram ]
Orbital Elements at Epoch 2459200.5 (2020-Dec-17.0) TDB
Reference: JPL 23 (heliocentric ecliptic J2000)
 Element Value Uncertainty (1-sigma)   Units 
e .2553462138041148 3.2858e-08  
a 3.144036283996378 2.5599e-08 au
q 2.341218522815145 1.1323e-07 au
i 17.65834521343108 4.3101e-06 deg
node 134.1832582176027 1.218e-05 deg
peri 266.3091964914377 1.7491e-05 deg
M 344.4285775444689 8.646e-06 deg
tp 2459288.575585224243
(2021-Mar-15.07558522)
4.8757e-05 TDB
period 2036.243687516471
5.57
2.4869e-05
6.809e-08
d
yr
n .1767961281879176 2.1592e-09 deg/d
Q 3.946854045177611 3.2136e-08 au
  Orbit Determination Parameters
   # obs. used (total)      874  
   data-arc span      8151 days (22.32 yr)  
   first obs. used      1998-10-18  
   last obs. used      2021-02-10  
   planetary ephem.      DE441  
   SB-pert. ephem.      SB441-N16  
   condition code      0  
   norm. resid. RMS      .50832  
   source      ORB  
   producer      Otto Matic  
   solution date      2021-Apr-13 12:28:42  

Additional Information
 Earth MOID = 1.42623 au 
 Jupiter MOID = 1.94092 au 
 T_jup = 3.087 
[ show covariance matrix ]

Ephemeris | Orbit Diagram | Orbital Elements | Mission Design | Physical Parameters | Discovery Circumstances | Close-Approach Data ]

Physical Parameter Table
Parameter Symbol Value Units Sigma Reference Notes
absolute magnitude H 14.53   n/a E2021B10  
diameter diameter 6.403 km 2.084 urn:nasa:pds:neowise_diameters_albedos::2.0[mainbelt] (http://adsabs.harvard.edu/abs/2016AJ....152...63N)  
geometric albedo albedo 0.068   0.059 urn:nasa:pds:neowise_diameters_albedos::2.0[mainbelt] (http://adsabs.harvard.edu/abs/2016AJ....152...63N)  

67234 (2000 ED12)          Discovered 2000-Mar-04 by LINEAR at Socorro
Reference: 20030910/Numbers.arcLast Updated: 2004-04-19

[ show close-approach data ]
Alternate Designations
 2000 ED12 = 2002 LG58 
Ephemeris | Orbit Diagram | Orbital Elements | Mission Design | Physical Parameters | Discovery Circumstances | Close-Approach Data ]
ABOUT SSD CREDITS/AWARDS PRIVACY/COPYRIGHT GLOSSARY LINKS
FirstGov 2021-Jun-22 15:30 UT
(server date/time)  
NASA Home Page
Site Manager:   Ryan S. Park
Webmaster  Alan B. Chamberlin